カタログに戻る

CZ-6A DEB

運用中PO
NORAD 61500·DEBRIS·🇨🇳 China

打ち上げ Aug 6, 2024 から Taiyuan Satellite Launch Center

Loading…

次のパス (今後24時間)

TLE

最新Source: Space-Track

元期: Sep 14, 2026, 11:07 UTC

1 61500U 24140ABJ 26257.46354495  .00001714  00000-0  82075-3 0  9993
2 61500  88.9774 263.4647 0070625 279.5691  79.7522 14.17382936106551

AllMySatでCZ-6A DEBをリアルタイム追跡

Download on the App Store